Location: Quedlinburg
(51.7921°N, 11.1414°E)
Time: 08:05:16
(UTC+02:00)

SO-50 - Pass Details

Date: 14 March 2026
Orbit: 567 x 673 km, 64.6° (Epoch: 13 April)

Event Time Altitude Azimuth Distance (km) Brightness Sun altitude
Rises 18:59:58 0° 216° (SW) 2,931 ? -7.3°
Reaches altitude 10° 19:02:14 10° 215° (SW) 2,042 ? -7.6°
Maximum altitude 19:06:52 77° 129° (SE) 682 ? -8.3°
Drops below altitude 10° 19:11:39 10° 45° (NE) 2,103 ? -9.1°
Sets 19:14:00 0° 44° (NE) 3,027 ? -9.4°
